Date String (YYYY-MM-DD hh:mm:ss) UTC,Instrument flags,Ambient pressure (hPa),Sample flow (lpm),Bypass flow (lpm),Sample temperature (°C),Ambient temperature (°C),ASC tube jacket temperature (°C),LED temperature (°C),Box temperature (°C),Sample RH (%),Span deviation,Mass concentration (μg/m³),Mass concentration (μg/m³),Mass concentration (μg/m³)
DateTimeUTC,F1_M11,P_M11,Q1_M11,Q2_M11,T1_M11,T2_M11,T3_M11,T4_M11,T5_M11,U1_M11,ZSPAN_M11,X2_M11,X0_M11,X1_M11
2021-09-23 23:00:00,,0827.7,4.99,0.00,29.2,25.8,00.0,38.2,30.6,11.1,0001.1,0019.22,0034.03,0017.60
2021-09-23 23:01:00,,0827.6,5.01,0.00,29.0,25.8,00.0,38.2,30.5,11.2,0001.4,0019.53,0034.64,0017.86
2021-09-23 23:02:00,,0827.7,5.00,0.00,29.0,26.2,00.0,38.1,30.6,11.2,0001.4,0019.74,0034.74,0018.05
2021-09-23 23:03:00,,0827.7,4.99,0.00,29.0,26.6,00.0,38.1,30.7,11.1,0001.5,0019.87,0034.71,0018.21
2021-09-23 23:04:00,,0827.7,5.01,0.00,29.0,27.1,00.0,38.1,30.8,11.0,0001.3,0020.08,0035.29,0018.39
2021-09-23 23:05:00,,0827.7,5.00,0.00,29.1,27.5,00.0,38.1,30.9,11.0,0001.4,0020.11,0036.07,0018.44
2021-09-23 23:06:00,,0827.7,4.99,0.00,29.1,27.8,00.0,38.1,31.0,11.1,0001.5,0020.24,0036.31,0018.55
2021-09-23 23:07:00,,0827.7,5.01,0.00,29.2,28.1,00.0,38.1,31.1,11.1,0001.7,0020.48,0037.08,0018.73
2021-09-23 23:08:00,,0827.7,4.99,0.00,29.2,28.3,00.0,38.2,31.2,11.2,0001.3,0020.58,0036.93,0018.88
2021-09-23 23:09:00,,0827.7,5.00,0.00,29.3,28.5,00.0,38.2,31.3,11.2,0001.3,0020.70,0036.82,0018.96
2021-09-23 23:10:00,,0827.7,5.00,0.00,29.4,28.7,00.0,38.2,31.3,11.1,0001.2,0020.90,0037.35,0019.06
2021-09-23 23:11:00,,0827.7,4.99,0.00,29.4,28.8,00.0,38.2,31.4,11.2,0001.1,0021.06,0036.22,0019.22
2021-09-23 23:12:00,,0827.7,5.01,0.00,29.5,28.3,00.0,38.3,31.3,11.1,0001.0,0021.25,0036.21,0019.44
2021-09-23 23:13:00,,0827.7,4.99,0.00,29.4,26.3,00.0,38.3,30.8,11.1,0001.1,0021.51,0036.65,0019.69
2021-09-23 23:14:00,,0827.7,5.00,0.00,29.2,25.7,00.0,38.3,30.5,11.3,0001.1,0021.79,0037.93,0019.95
2021-09-23 23:15:00,,0827.7,4.99,0.00,29.1,26.1,00.0,38.3,30.7,11.5,0001.1,0021.94,0038.42,0020.12
2021-09-23 23:16:00,,0827.7,5.00,0.00,29.1,26.5,00.0,38.2,30.7,11.6,0001.0,0022.11,0038.16,0020.27
2021-09-23 23:17:00,,0827.7,5.01,0.00,29.1,27.0,00.0,38.2,30.8,11.7,0001.1,0022.27,0038.81,0020.39
2021-09-23 23:18:00,,0827.7,4.99,0.00,29.1,27.4,00.0,38.2,30.9,11.5,0001.3,0022.34,0039.33,0020.44
2021-09-23 23:19:00,,0827.7,5.00,0.00,29.2,27.8,00.0,38.2,31.0,11.7,0001.3,0022.41,0039.70,0020.44
2021-09-23 23:20:00,,0827.7,5.00,0.00,29.3,28.1,00.0,38.2,31.1,11.6,0001.3,0022.51,0039.86,0020.53
2021-09-23 23:21:00,,0827.7,4.99,0.00,29.3,28.3,00.0,38.2,31.2,11.7,0001.7,0022.55,0040.22,0020.61
2021-09-23 23:22:00,,0827.7,4.99,0.00,29.4,28.5,00.0,38.3,31.3,11.8,0001.7,0022.62,0041.10,0020.69
2021-09-23 23:23:00,,0827.7,5.00,0.00,29.4,28.7,00.0,38.3,31.4,11.8,0001.3,0022.75,0041.52,0020.74
2021-09-23 23:24:00,,0827.7,5.00,0.00,29.5,28.8,00.0,38.3,31.4,11.9,0001.1,0022.81,0041.83,0020.80
2021-09-23 23:25:00,,0827.7,5.00,0.00,29.5,27.9,00.0,38.4,31.2,11.9,0001.4,0022.91,0041.33,0020.85
2021-09-23 23:26:00,,0827.7,5.00,0.00,29.3,26.0,00.0,38.3,30.7,12.0,0001.5,0023.08,0041.14,0020.91
2021-09-23 23:27:00,,0827.7,5.00,0.00,29.2,25.7,00.0,38.3,30.5,12.2,0001.6,0023.15,0040.93,0021.01
2021-09-23 23:28:00,,0827.7,5.00,0.00,29.1,26.1,00.0,38.3,30.7,12.2,0001.8,0023.27,0040.09,0021.11
2021-09-23 23:29:00,,0827.7,4.99,0.00,29.1,26.6,00.0,38.3,30.7,12.1,0001.6,0023.35,0039.19,0021.21
2021-09-23 23:30:00,,0827.7,4.99,0.00,29.1,27.1,00.0,38.2,30.9,12.2,0002.0,0023.41,0038.99,0021.30
2021-09-23 23:31:00,,0827.7,5.01,0.00,29.2,27.5,00.0,38.2,31.0,12.2,0002.1,0023.42,0039.11,0021.32
2021-09-23 23:32:00,,0827.7,4.99,0.00,29.2,27.8,00.0,38.2,31.1,12.1,0001.8,0023.43,0038.72,0021.32
2021-09-23 23:33:00,,0827.8,5.00,0.00,29.3,28.1,00.0,38.2,31.2,12.1,0001.8,0023.47,0038.21,0021.32
2021-09-23 23:34:00,,0827.8,4.99,0.00,29.3,28.3,00.0,38.3,31.2,12.0,0002.1,0023.45,0038.12,0021.37
2021-09-23 23:35:00,,0827.9,5.00,0.00,29.4,28.5,00.0,38.3,31.3,11.9,0002.2,0023.54,0038.62,0021.40
2021-09-23 23:36:00,,0827.9,5.01,0.00,29.5,28.7,00.0,38.3,31.4,11.7,0002.2,0023.60,0039.54,0021.45
2021-09-23 23:37:00,,0827.9,5.00,0.00,29.5,28.8,00.0,38.4,31.4,11.6,0002.0,0023.58,0039.85,0021.49
2021-09-23 23:38:00,,0827.9,5.01,0.00,29.5,27.4,00.0,38.4,31.1,11.7,0002.0,0023.65,0040.71,0021.54
2021-09-23 23:39:00,,0827.9,5.00,0.00,29.3,25.6,00.0,38.3,30.6,11.8,0001.8,0023.70,0042.56,0021.59
2021-09-23 23:40:00,,0827.9,5.00,0.00,29.2,25.6,00.0,38.3,30.5,11.9,0001.5,0023.75,0043.04,0021.63
2021-09-23 23:41:00,,0827.9,4.99,0.00,29.1,26.1,00.0,38.3,30.6,11.9,0001.1,0023.83,0043.20,0021.67
2021-09-23 23:42:00,,0827.9,5.00,0.00,29.1,26.6,00.0,38.3,30.7,11.7,0001.3,0023.99,0043.05,0021.78
2021-09-23 23:43:00,,0827.9,5.01,0.00,29.1,27.1,00.0,38.2,30.8,11.8,0001.4,0024.14,0043.80,0021.88
2021-09-23 23:44:00,,0827.8,4.99,0.00,29.2,27.4,00.0,38.2,30.9,11.9,0001.6,0024.27,0046.49,0021.96
2021-09-23 23:45:00,,0827.9,4.99,0.00,29.2,27.8,00.0,38.2,31.0,11.9,0001.5,0024.42,0047.77,0022.04
2021-09-23 23:46:00,,0827.8,5.01,0.00,29.3,28.1,00.0,38.2,31.1,12.0,0001.4,0024.46,0047.60,0022.11
2021-09-23 23:47:00,,0827.9,4.99,0.00,29.3,28.3,00.0,38.3,31.2,11.9,0001.2,0024.48,0048.05,0022.14
2021-09-23 23:48:00,,0828.0,5.00,0.00,29.4,28.5,00.0,38.3,31.3,11.7,0001.4,0024.55,0049.38,0022.19
2021-09-23 23:49:00,,0827.9,5.01,0.00,29.4,28.6,00.0,38.3,31.3,11.7,0001.6,0024.56,0047.98,0022.21
2021-09-23 23:50:00,,0827.9,5.00,0.00,29.5,28.8,00.0,38.4,31.4,11.8,0001.7,0024.55,0046.05,0022.23
2021-09-23 23:51:00,,0827.9,4.99,0.00,29.5,28.9,00.0,38.4,31.5,11.7,0001.7,0024.56,0045.49,0022.24
2021-09-23 23:52:00,,0827.9,5.00,0.00,29.6,28.3,00.0,38.4,31.3,11.7,0002.0,0024.53,0045.60,0022.25
2021-09-23 23:53:00,,0827.9,5.01,0.00,29.4,26.2,00.0,38.4,30.6,11.7,0001.9,0024.50,0046.43,0022.20
2021-09-23 23:54:00,,0828.0,5.00,0.00,29.2,25.5,00.0,38.4,30.5,11.7,0002.0,0024.47,0046.18,0022.13
2021-09-23 23:55:00,,0828.0,5.01,0.00,29.2,25.9,00.0,38.4,30.6,11.7,0001.9,0024.40,0044.18,0022.12
2021-09-23 23:56:00,,0828.0,5.00,0.00,29.1,26.4,00.0,38.3,30.7,11.7,0001.8,0024.33,0043.57,0022.09
2021-09-23 23:57:00,,0828.0,5.00,0.00,29.1,26.9,00.0,38.3,30.8,11.6,0002.0,0024.27,0044.12,0022.05
2021-09-23 23:58:00,,0828.0,5.00,0.00,29.2,27.3,00.0,38.3,30.9,11.6,0002.1,0024.22,0042.90,0022.04
2021-09-23 23:59:00,,0828.1,5.00,0.00,29.2,27.7,00.0,38.3,31.0,11.5,0001.9,0024.18,0041.38,0021.98
